Location: Newark
(36.1358°N, 115.1208°W)
Time: 00:28:42
(UTC+00:00)

Vanguard 1 Rocket - Pass Details

Date: 20 February 2020
Orbit: 650 x 4226 km, 34.3° (Epoch: 01 April)

Event Time Altitude Azimuth Distance (km) Brightness Sun altitude
Rises 10:01:07 0° 238° (WSW) 5,091 - -51.9°
Reaches altitude 10° 10:05:20 10° 233° (SW) 3,555 - -51.2°
Maximum altitude 10:12:53 44° 164° (SSE) 1,269 - -49.9°
Drops below altitude 10° 10:17:37 10° 92° (E) 2,237 - -49.1°
Exits shadow 10:19:32 - 85° (E) 2,965 10.6 -48.7°
Sets 10:19:42 0° 85° (E) 3,037 10.7 -48.7°
